[[{"header":{"parameterUnit":"m.s-1","parameterCategory":1,"la1":30.2991,"la2":30.254,"lo1":-89.0895,"lo2":-89.0444,"dy":0.0017,"dx":0.0017,"nx":28,"ny":28,"refTime":"2024-06-20T21:00:00:Z","depth":0,"parameterNumber":2,"parameterNumberName":"U-component_of_WINDS"},"data":[0,0,0,0,0,0,0,0,0,0,0,0,0,0,0,0,0,0,0,0,0,0,0,0,0,0,0,0,0,0,0,0,0,0,0,0,0,0,0,0,0,0,0,0,0,0,0,0,0,0,0,0,0,0,0,0,0,0,0.2279,0.2279,0,0.2277,0.2277,0.2277,0.229,0.229,0.2291,0.2291,0.2287,0.2287,0.2286,0,0,0,0,0,0,0,0,0,0,0,0,0,0.2292,0.2291,0.2279,0.2279,0.2279,0.2277,0.2277,0.2277,0.229,0.229,0.2291,0.2291,0.2287,0.2287,0.2286,0,0,0,0,0,0,0,0,0,0,0,0,0,0.2288,0.2291,0.2279,0.2285,0.2286,0.2277,0.2277,0.2277,0.229,0.229,0.2291,0.2291,0.2288,0.2287,0.2286,0.2271,0,0,0.2284,0.2284,0,0,0,0,0,0,0,0,0.2288,0.2287,0.2284,0.2285,0.2285,0.2284,0.228,0.2275,0.229,0.2288,0.2291,0.2292,0.2286,0.2285,0.2284,0.2271,0.2271,0.2284,0.2284,0.2283,0.2283,0,0,0,0,0,0,0,0.2288,0.2287,0.2278,0.2284,0.2285,0.2288,0.2288,0.228,0.2284,0.2288,0.2289,0.2289,0.2286,0.2284,0.2284,0.2271,0.2284,0.2284,0.2283,0.2283,0.2247,0.2246,0,0,0,0,0,0,0.2288,0.2287,0.2278,0.2278,0.2288,0.2287,0.2287,0.2284,0.2284,0.2284,0.2289,0.229,0.2285,0.2284,0.2284,0.2266,0.2283,0.2283,0.2283,0.2248,0.2247,0.2246,0,0,0,0,0,0,0.2288,0.2287,0.2278,0.2283,0.2282,0.2286,0.2283,0.2284,0.2282,0.2284,0.2285,0.2286,0.2286,0.2284,0.2275,0.2266,0.2283,0.2282,0.2248,0.2247,0.2247,0.2231,0,0,0,0,0,0,0.2288,0.2287,0.2281,0.2283,0.2282,0.227,0.2282,0.2283,0.2281,0.2282,0.2282,0.2282,0.2286,0.2276,0.2274,0.2266,0.2281,0.2249,0.2248,0.2247,0.2233,0.223,0.2228,0,0,0,0,0,0.2289,0.2277,0.2281,0.228,0.2275,0.2269,0.2268,0.2273,0.228,0.2275,0.2276,0.2282,0.2268,0.2274,0.2273,0.2264,0.2249,0.2248,0.2247,0.2234,0.2231,0.2228,0,0,0,0,0,0,0.2273,0.2277,0.2282,0.227,0.2269,0.2271,0.2264,0.227,0.2267,0.2268,0.2274,0.2273,0.2263,0.2263,0.227,0.225,0.226,0.2258,0.225,0.2247,0.2245,0.2245,0.2281,0,0,0,0,0,0.2268,0.2263,0.2267,0.2256,0.2255,0.226,0.2257,0.2262,0.2261,0.226,0.2261,0.226,0.2255,0.2251,0.2247,0.2233,0.2233,0.2227,0.2224,0.2223,0.2221,0.2214,0.2211,0.2242,0.2242,0.2242,0,0,0.2258,0.2259,0.2256,0.2253,0.2253,0.2247,0.2259,0.2253,0.2249,0.2259,0.225,0.2251,0.2249,0.2238,0.2233,0.2237,0.2212,0.2221,0.2219,0.2218,0.2212,0.2209,0.2206,0.2241,0.2241,0.2242,0,0,0.2236,0.2237,0.2228,0.2228,0.2228,0.2232,0.223,0.2231,0.2233,0.2224,0.2232,0.2227,0.2218,0.2217,0.2216,0.2196,0.2201,0.2194,0.2181,0.2175,0.2172,0.217,0.2162,0.216,0.2193,0.2193,0.2193,0,0.2222,0.2215,0.2222,0.2216,0.2214,0.2225,0.2216,0.2215,0.2214,0.2212,0.2218,0.2209,0.2209,0.2197,0.2192,0.2191,0.2188,0.2193,0.2172,0.217,0.2168,0.2161,0.2158,0.2192,0.2192,0.2192,0.2192,0,0.2199,0.2193,0.2186,0.2186,0.2184,0.2176,0.2182,0.2179,0.2184,0.2186,0.2178,0.2178,0.2175,0.2172,0.2177,0.2162,0.2165,0.2171,0.2181,0.2164,0.2157,0.2155,0.219,0.2191,0.2191,0.2191,0,0,0.2164,0.217,0.2167,0.2167,0.2169,0.2165,0.2158,0.2155,0.2152,0.2152,0.2145,0.2139,0.2146,0.2144,0.2149,0.2143,0.2127,0.215,0.215,0.2145,0.211,0.2104,0.2101,0.2131,0.2131,0.213,0.211,0,0.2143,0.2131,0.2138,0.2125,0.2121,0.2132,0.2126,0.2126,0.2129,0.2125,0.2129,0.2124,0.2133,0.2132,0.2127,0.213,0.2119,0.2131,0.2125,0.2124,0.2123,0.2097,0.2091,0.2071,0.2107,0.2107,0.2107,0,0.2115,0.2114,0.2101,0.2105,0.2103,0.2098,0.2096,0.2093,0.2094,0.2097,0.2096,0.2102,0.2095,0.2106,0.2097,0.2105,0.2103,0.2104,0.2104,0.2102,0.2113,0.2094,0.2065,0.2062,0.2103,0.2103,0.2103,0,0.209,0.2086,0.2078,0.2078,0.2083,0.2078,0.208,0.2082,0.208,0.2079,0.2078,0.2076,0.2075,0.2073,0.2079,0.2086,0.2069,0.208,0.207,0.207,0.2064,0.2064,0.2034,0.2065,0.2065,0.2065,0.2065,0,0.2064,0.2056,0.2067,0.2062,0.2053,0.2062,0.2052,0.2055,0.2057,0.2053,0.2062,0.2058,0.2066,0.2062,0.2067,0.2059,0.2058,0.206,0.2061,0.2058,0.2058,0.2056,0.2057,0.2064,0.2064,0.2065,0.2065,0,0.2035,0.2042,0.2034,0.204,0.2041,0.2034,0.2039,0.2034,0.2039,0.2033,0.2032,0.2039,0.2035,0.2041,0.2038,0.2041,0.2029,0.2033,0.2029,0.2029,0.2019,0.2019,0.1985,0.1981,0.2016,0.2015,0.2015,0,0.2017,0.2011,0.2016,0.2014,0.2016,0.2013,0.2011,0.2021,0.2019,0.2021,0.2016,0.2013,0.2011,0.2005,0.2009,0.2007,0.201,0.1999,0.201,0.2008,0.2009,0.2009,0.2008,0.1995,0.1995,0.1995,0.1994,0,0.1984,0.1989,0.1987,0.1987,0.1985,0.1985,0.1986,0.1984,0.1994,0.1991,0.1988,0.1987,0.1985,0.1982,0.1981,0.1983,0.199,0.1991,0.1989,0.1985,0.1983,0.1983,0.2021,0.1991,0.1992,0.1992,0.1992,0.1992,0.1959,0.1954,0.1958,0.1956,0.1958,0.1959,0.1955,0.196,0.1958,0.1957,0.1963,0.1958,0.1961,0.1961,0.1962,0.1958,0.1964,0.196,0.1959,0.1957,0.1955,0.1985,0.1958,0.1959,0.1959,0.1959,0.1959,0,0.1926,0.193,0.1928,0.1929,0.1928,0.1937,0.1939,0.1936,0.1933,0.1935,0.1934,0.193,0.1928,0.1933,0.1932,0.1928,0.1932,0.1928,0.1927,0.1927,0.1951,0.1953,0.1925,0.1925,0.1925,0.1925,0.1925,0.1925,0.1909,0.1901,0.1907,0.19,0.1904,0.19,0.1901,0.1902,0.1903,0.19,0.1898,0.1902,0.1906,0.1905,0.1903,0.1905,0.1904,0.1898,0.1901,0.1922,0.1926,0.1929,0.1931,0.1898,0.1898,0.1877,0.1877,0.1877]},{"header":{"parameterUnit":"m.s-1","parameterCategory":1,"la1":30.2991,"la2":30.254,"lo1":-89.0895,"lo2":-89.0444,"dy":0.0017,"dx":0.0017,"nx":28,"ny":28,"refTime":"2024-06-20T21:00:00:Z","depth":0,"parameterNumber":3,"parameterNumberName":"V-component_of_WINDS"},"data":[0,0,0,0,0,0,0,0,0,0,0,0,0,0,0,0,0,0,0,0,0,0,0,0,0,0,0,0,0,0,0,0,0,0,0,0,0,0,0,0,0,0,0,0,0,0,0,0,0,0,0,0,0,0,0,0,0,0,-3.7401,-3.7402,0,-3.7517,-3.7519,-3.752,-3.7502,-3.75,-3.7498,-3.7496,-3.7611,-3.7615,-3.762,0,0,0,0,0,0,0,0,0,0,0,0,0,-3.716,-3.7164,-3.7401,-3.7403,-3.7404,-3.7517,-3.7519,-3.752,-3.7502,-3.75,-3.7498,-3.7495,-3.7609,-3.7615,-3.7621,0,0,0,0,0,0,0,0,0,0,0,0,0,-3.7269,-3.7166,-3.7401,-3.7409,-3.7411,-3.7517,-3.7519,-3.7521,-3.7503,-3.75,-3.7497,-3.7494,-3.7607,-3.7614,-3.7621,-3.7725,0,0,-3.7644,-3.7647,0,0,0,0,0,0,0,0,-3.7263,-3.7278,-3.7406,-3.7409,-3.7411,-3.7492,-3.7475,-3.7589,-3.7504,-3.7468,-3.7496,-3.7493,-3.7573,-3.7583,-3.7611,-3.7731,-3.7736,-3.7644,-3.7649,-3.7652,-3.7654,0,0,0,0,0,0,0,-3.7255,-3.7273,-3.7447,-3.7408,-3.7411,-3.7405,-3.7418,-3.7497,-3.7535,-3.7471,-3.747,-3.7484,-3.7574,-3.7604,-3.7614,-3.7737,-3.7644,-3.7651,-3.7655,-3.7658,-3.7948,-3.7951,0,0,0,0,0,0,-3.7246,-3.7266,-3.7443,-3.745,-3.7328,-3.7412,-3.7426,-3.7469,-3.7535,-3.7542,-3.7486,-3.7483,-3.7593,-3.7605,-3.7618,-3.7744,-3.7652,-3.7659,-3.7663,-3.7944,-3.7948,-3.7952,0,0,0,0,0,0,-3.7241,-3.7262,-3.7439,-3.7358,-3.738,-3.7419,-3.7468,-3.7473,-3.7503,-3.7547,-3.7553,-3.7511,-3.7591,-3.7607,-3.7699,-3.7748,-3.7662,-3.7669,-3.794,-3.7946,-3.795,-3.7997,0,0,0,0,0,0,-3.7234,-3.726,-3.7301,-3.7359,-3.7385,-3.7519,-3.7471,-3.7477,-3.7517,-3.7513,-3.7571,-3.7578,-3.759,-3.7688,-3.7706,-3.7756,-3.7674,-3.7936,-3.7943,-3.7949,-3.7992,-3.8003,-3.8013,0,0,0,0,0,-3.7225,-3.7309,-3.7303,-3.7325,-3.7437,-3.7522,-3.7537,-3.7551,-3.7521,-3.7561,-3.7589,-3.7576,-3.774,-3.7698,-3.7718,-3.7771,-3.7933,-3.7941,-3.7948,-3.7987,-3.8001,-3.8013,0,0,0,0,0,0,-3.7253,-3.7316,-3.7311,-3.7416,-3.7464,-3.7519,-3.7571,-3.7566,-3.7622,-3.7616,-3.763,-3.7643,-3.7736,-3.7762,-3.7715,-3.7875,-3.7832,-3.7844,-3.7854,-3.7868,-3.7879,-3.787,-3.768,0,0,0,0,0,-3.7272,-3.7338,-3.7388,-3.7476,-3.7501,-3.7532,-3.7569,-3.7577,-3.7626,-3.7646,-3.768,-3.7728,-3.779,-3.783,-3.789,-3.7995,-3.8007,-3.8041,-3.8052,-3.8061,-3.8071,-3.8129,-3.8144,-3.7976,-3.7976,-3.7976,0,0,-3.731,-3.7353,-3.7393,-3.7483,-3.7521,-3.7587,-3.7549,-3.762,-3.767,-3.7656,-3.7746,-3.7772,-3.7826,-3.7925,-3.797,-3.795,-3.812,-3.8071,-3.8077,-3.8082,-3.8138,-3.8154,-3.8168,-3.7982,-3.7981,-3.798,0,0,-3.7415,-3.7454,-3.7531,-3.7571,-3.763,-3.765,-3.7669,-3.7725,-3.7743,-3.7833,-3.7825,-3.7882,-3.7989,-3.8028,-3.8061,-3.8181,-3.8171,-3.82,-3.8256,-3.8312,-3.8326,-3.8337,-3.838,-3.8395,-3.821,-3.821,-3.821,0,-3.7455,-3.7556,-3.7571,-3.7645,-3.7684,-3.7677,-3.7755,-3.7791,-3.7866,-3.7893,-3.7869,-3.8004,-3.8039,-3.8147,-3.8177,-3.8204,-3.8225,-3.8193,-3.8323,-3.8335,-3.8346,-3.8387,-3.8403,-3.8213,-3.8213,-3.8212,-3.8212,0,-3.7602,-3.7673,-3.7728,-3.7802,-3.7848,-3.7922,-3.7948,-3.7992,-3.7995,-3.8017,-3.8109,-3.8152,-3.822,-3.8246,-3.8249,-3.8355,-3.834,-3.832,-3.8277,-3.8365,-3.8403,-3.8419,-3.8218,-3.8216,-3.8215,-3.8215,0,0,-3.7727,-3.781,-3.783,-3.7864,-3.7928,-3.7982,-3.8056,-3.8125,-3.8162,-3.8214,-3.8276,-3.8367,-3.8349,-3.8387,-3.8394,-3.8443,-3.8535,-3.8417,-3.8418,-3.8437,-3.8654,-3.8669,-3.8687,-3.8529,-3.8532,-3.8534,-3.865,0,-3.7838,-3.7971,-3.7987,-3.8105,-3.817,-3.8164,-3.8229,-3.8275,-3.8298,-3.8355,-3.8379,-3.8444,-3.8415,-3.8438,-3.8486,-3.8514,-3.8579,-3.8506,-3.8586,-3.8589,-3.8573,-3.8707,-3.8723,-3.883,-3.8665,-3.8667,-3.8669,0,-3.7985,-3.8042,-3.8167,-3.8224,-3.8251,-3.8309,-3.8374,-3.8429,-3.848,-3.8493,-3.8537,-3.8538,-3.8613,-3.8568,-3.8672,-3.8621,-3.8655,-3.8673,-3.8678,-3.8686,-3.8634,-3.8719,-3.8864,-3.888,-3.8693,-3.8691,-3.8689,0,-3.8063,-3.8172,-3.8261,-3.829,-3.8358,-3.8399,-3.8428,-3.8477,-3.8518,-3.8573,-3.8599,-3.8662,-3.8696,-3.8744,-3.8762,-3.8727,-3.8865,-3.8821,-3.8877,-3.8877,-3.8906,-3.8904,-3.9059,-3.8928,-3.8928,-3.8928,-3.8927,0,-3.8185,-3.8262,-3.8297,-3.8352,-3.8437,-3.8455,-3.8538,-3.8566,-3.861,-3.8669,-3.8667,-3.8722,-3.8742,-3.88,-3.8814,-3.8898,-3.8913,-3.8925,-3.8928,-3.8925,-3.8924,-3.8947,-3.894,-3.8932,-3.8931,-3.893,-3.8929,0,-3.8287,-3.8314,-3.8411,-3.8468,-3.8484,-3.8544,-3.8592,-3.8644,-3.8667,-3.8741,-3.876,-3.8795,-3.8863,-3.8886,-3.8967,-3.8977,-3.9075,-3.9071,-3.9058,-3.9058,-3.9113,-3.9108,-3.9289,-3.9314,-3.9166,-3.9168,-3.9169,0,-3.8363,-3.8422,-3.8486,-3.8526,-3.8558,-3.8623,-3.8664,-3.8683,-3.8726,-3.879,-3.8834,-3.8902,-3.8958,-3.9067,-3.9099,-3.9162,-3.9159,-3.9218,-3.9168,-3.9164,-3.916,-3.9156,-3.9162,-3.9228,-3.9229,-3.923,-3.9231,0,-3.8495,-3.8506,-3.8567,-3.8633,-3.8683,-3.8735,-3.8785,-3.8818,-3.8844,-3.8892,-3.8963,-3.9006,-3.9091,-3.9159,-3.9223,-3.9252,-3.9246,-3.9247,-3.9263,-3.9261,-3.9251,-3.9258,-3.9083,-3.9243,-3.9242,-3.9241,-3.924,-3.924,-3.8586,-3.8639,-3.8692,-3.876,-3.88,-3.8848,-3.89,-3.8929,-3.8989,-3.9061,-3.9068,-3.9144,-3.9194,-3.928,-3.9312,-3.9371,-3.9354,-3.9378,-3.9384,-3.9389,-3.9394,-3.9242,-3.9383,-3.9383,-3.9382,-3.9382,-3.9382,0,-3.8718,-3.8753,-3.8815,-3.8886,-3.894,-3.8931,-3.8987,-3.9031,-3.9099,-3.9147,-3.9202,-3.9283,-3.9349,-3.9386,-3.9451,-3.9491,-3.949,-3.9508,-3.9505,-3.9512,-3.9405,-3.9385,-3.9508,-3.9508,-3.9507,-3.9507,-3.9507,-3.9507,-3.8793,-3.8882,-3.8899,-3.9007,-3.904,-3.9116,-3.9148,-3.9192,-3.923,-3.9321,-3.9376,-3.9401,-3.9444,-3.9513,-3.9572,-3.9581,-3.9605,-3.9625,-3.9632,-3.9532,-3.9519,-3.9507,-3.9487,-3.963,-3.963,-3.9733,-3.9734,-3.9735]}]]